Terug naar catalogus

GALILEO-FM2

ActiefNavigatieMEO
NORAD 37847·PAYLOAD·🇪🇺 EU

Gelanceerd Oct 21, 2011 vanaf Guiana Space Centre

Loading…

Volgende Passages (komende 24 uur)

TLE

VersSource: CelesTrak SupGP

Epoch: Sep 13, 2026, 23:59 UTC

1 37847C 11060B   26256.99979167  .00000000  00000+0  00000+0 0  2569
2 37847  56.9588 339.3532 0002200 312.3146  87.5696  1.70476249    16

Volg GALILEO-FM2 in realtime met AllMySat

Download on the App Store